TIANWANG 1B (TW-1B)
1 40927U 15051C   19194.52693405  .00010816  00000-0  16556-3 0  9994
2 40927  97.1369 239.9926 0006210 296.5497 169.5364 15.54514512213878
TIANWANG 1A (TW-1A)
1 40928U 15051D   19194.50531818  .00003383  00000-0  84227-4 0  9994
2 40928  97.1444 225.2606 0010842 352.8491 145.7997 15.40882643212990
LAPAN A2
1 40931U 15052B   19194.47509857  .00000541  00000-0 -13698-4 0  9991
2 40931   6.0039 239.8756 0012310 148.0184 212.0558 14.76609416204935
LQSAT
1 40958U 15057A   19193.88135135 -.00000116 +00000-0 -10299-4 0  9996
2 40958 097.8981 262.4235 0018554 159.6901 200.5049 14.73083504202377
CHUBUSAT 2
1 41338U 16012B   19193.84486859 +.00000251 +00000-0 +12763-4 0  9995
2 41338 031.0042 351.2741 0013905 341.8320 018.1817 15.00157738186540
CHUBUSAT 3
1 41339U 16012C   19194.47683764  .00000234  00000-0  11449-4 0  9991
2 41339  31.0123 345.3198 0013808 355.9473   4.1068 15.00333291186631
OUFTI-1
1 41458U 16025C   19193.84271101  .00000743  00000-0  42413-4 0  9995
2 41458  98.1025 281.9141 0164894 275.9336  82.3118 15.05841532176205
E-STAR-2
1 41459U 16025D   19194.46308296  .00000873  00000-0  49215-4 0  9992
2 41459  98.1022 282.2127 0166519 275.0861  83.1428 15.05477131176271
AAUSAT 4
1 41460U 16025E   19194.47431841  .00000605  00000-0  34936-4 0  9995
2 41460  98.0942 283.5260 0156237 267.5554  90.7792 15.07365152176400
NUSAT 1
1 41557U 16033B   19194.48326935  .00000910  00000-0  36804-4 0  9994
2 41557  97.4182 281.8395 0013122 203.8474 156.2159 15.27244854173875
BEESAT 4
1 41619U 16040W   19193.69115658  .00001000  00000-0  45248-4 0  9994
2 41619  97.3662 255.4668 0009807 304.2490  55.7818 15.23162098157518
PRATHAM
1 41783U 16059A   19193.74230977  .00000021  00000-0  13318-4 0  9999
2 41783  98.0659 252.7916 0032419 309.9229  49.9125 14.62998875149066
ALSAT 1N
1 41789U 16059G   19194.39382713  .00000020  00000-0  12891-4 0  9997
2 41789  98.0681 255.4752 0027239 297.2105  62.6322 14.64248754149260
NAYIF 1
1 42017U 17008BX  19193.70443156  .00001158  00000-0  48451-4 0  9994
2 42017  97.4020 260.5504 0007963  86.6813 273.5336 15.25567202133581
MAX VALIER SAT
1 42778U 17036P   19193.72252576  .00000751  00000-0  35794-4 0  9999
2 42778  97.3528 250.8584 0013691 134.7047 225.5307 15.22039808113896
